sat.trackr.live / text

‹ back to catalog

STARLINK-32377

NORAD 61888 · 2024-204Q

PAYLOAD ACTIVE UNKNOWN

§ Identity

Operator
Country
US
Launch date
2024-11-09
Launch site
AFWTR
Launch vehicle
Mass (kg)
RCS (m²)

Purposes: comms

External: N2YO · Heavens-Above · Gunter

§ Orbital elements

Epoch: 2026-09-21T18:41:44.388672Z

Period
93.85 min
Inclination
53.1592°
Eccentricity
0.0000982
Mean motion
15.34388232 rev/d
Perigee alt
462.1 km
Apogee alt
463.4 km
Semi-major
6,840.9 km
B*
1.9944e-5
RAAN
291.7305°
Arg perigee
94.1949°
Mean anomaly
265.9166°
Rev number
10,517

§ Raw data

STARLINK-323771 61888U 24204Q   26264.77898598  .00000298  00000+0  19944-4 0  99932 61888  53.1592 291.7305 0000982  94.1949 265.9166 15.34388232105178

JSON: /api/v1/satellites/61888 · /tle

For live sub-satellite position, see the globe view (requires WebGL).

§ Visibility from observer

Set your observer location to see the next 7 days of passes ≥ 10°. The values pass through the URL so the page stays shareable.

No JS? Fill the form by hand. The geolocation button needs JavaScript.